Location: Altleiningen
(49.5078°N, 8.0741°E)
Time: 00:03:27
(UTC+00:00)

GP-B - Pass Details

Date: 03 March 2021
Orbit: 631 x 635 km, 89.8° (Epoch: 12 April)

Event Time Altitude Azimuth Distance (km) Brightness Sun altitude
Rises 17:45:50 0° 143° (SE) 2,922 6.2 -6.0°
Reaches altitude 10° 17:48:21 10° 130° (SE) 2,019 5.3 -6.4°
Maximum altitude 17:51:56 24° 76° (ENE) 1,310 4.2 -7.0°
Drops below altitude 10° 17:55:31 10° 22° (NNE) 2,033 5.5 -7.6°
Sets 17:58:04 0° 9° (N) 2,947 6.4 -8.0°
